Location: Asheville, NC
(35.6000°N, 82.5500°W)
Time: 01:25:33
(UTC-05:00)

Vanguard 2 - Pass Details

Date: 11 December 2017
Orbit: 553 x 2940 km, 32.9° (Epoch: 20 January)

Event Time Altitude Azimuth Distance (km) Brightness Sun altitude
Rises 15:24:24 0° 229° (SW) 4,756 13.3 17.4°
Reaches altitude 10° 15:28:31 10° 221° (SW) 3,345 13.5 16.8°
Maximum altitude 15:35:13 31° 163° (SSE) 1,584 9.7 15.9°
Drops below altitude 10° 15:39:47 10° 100° (E) 2,241 9.6 15.2°
Sets 15:42:00 0° 89° (E) 2,990 10.1 14.9°
